Regional Weather Roundup
Issued by NWS Bismarck, ND

Home | Current Version | Previous Version | Text Only | Print | Product List | Glossary On
Versions: 1 2 3 4 5 6 7 8 9 10 11 12 13 14 15 16 17 18 19 20 21 22 23 24 25 26 27 28 29 30 31 32 33 34 35 36 37 38 39 40 41 42 43 44 45 46 47 48 49 50
900
ASUS43 KBIS 100902
RWRBIS

NWR BROADCAST TEXT
NATIONAL WEATHER SERVICE BISMARCK ND
300 AM CST WED FEB 10 2016

NOTE: "FAIR" INDICATES FEW OR NO CLOUDS BELOW 12,000 FEET WITH NO
SIGNIFICANT WEATHER AND/OR OBSTRUCTIONS TO VISIBILITY.


CITY           SKY/WX    TMP DP  RH WIND       PRES   REMARKS
WILLISTON      CLOUDY    26  22  84 S3        29.84F
MINOT          CLOUDY    20  12  71 E14       29.90F WCI   7
MINOT AFB      CLOUDY    17  15  91 SE14      29.89F WCI   3
BISMARCK       CLOUDY    28  21  75 E10       29.93F WCI  19
DICKINSON      CLOUDY    26  22  84 W8        29.83F WCI  18
GARRISON         N/A     23  20  88 SE12      29.87F WCI  12
HETTINGER ARPT CLOUDY    25  21  85 NW6       29.88F WCI  18
JAMESTOWN      LGT SNOW  10   5  80 SE13      30.03F WCI  -5
CARRINGTON     CLOUDY    10   9  92 SE16      30.03F FOG     WCI  -7
HAZEN          CLOUDY    27  19  74 SE6       29.90F WCI  20
LINTON         CLOUDY    21  18  86 SE12G20   29.96F WCI   9
MANDAN         CLOUDY    25  21  86 E12       29.91F WCI  14
OAKES          LGT SNOW  10   9  92 E10       30.06F WCI  -3
STANLEY        CLOUDY    25  25 100 S8        29.85F WCI  16
WATFORD CITY   FAIR      27  25  93 SW6       29.84F WCI  20
$$

CITY           SKY/WX    TMP DP  RH WIND       PRES   REMARKS
GRAND FORKS    CLOUDY     4  -4  69 E7        30.15F WCI  -8
GRAND FORKS AF FLURRIES   3  -4  70 SE6       30.14F WCI  -8
DEVILS LAKE    LGT SNOW   5   1  83 E13       30.05F FOG     WCI -12
FARGO          CLOUDY     5  -1  76 E3        30.15F
GRAFTON        FAIR       1  -6  71 E7        30.19S WCI -11
GWINNER        CLOUDY    12   9  85 E10       30.09F WCI  -1
LANGDON        LGT SNOW   3  -2  78 E13       30.05F WCI -14
$$

CITY           SKY/WX    TMP DP  RH WIND       PRES   REMARKS
ABERDEEN       LGT SNOW  19  14  81 E9        30.05F WCI   8
MOBRIDGE       CLOUDY    27  20  75 E15       29.90F WCI  15
BUFFALO          N/A     36  26  67 W13       29.82F
RAPID CITY     CLEAR     32  25  75 CALM      29.93F
GLASGOW        CLEAR     32  27  81 NW8       29.88R
SIDNEY         CLEAR     25  21  86 S8        29.85F WCI  16
WOLF POINT     CLEAR     28  25  88 W5        29.87F
GLENDIVE       CLEAR     30  27  86 S6        29.89F
MILES CITY     CLOUDY    34  25  69 W8        29.92F
BAKER          CLEAR     33  25  72 W7        29.89F
$$

CITY           SKY/WX    TMP DP  RH WIND       PRES   REMARKS
BILLINGS       CLOUDY    44  22  41 SW25      30.02F
GREAT FALLS    CLOUDY    42  23  46 SW15      30.03F
$$





USA.gov is the U.S. government's official web portal to all federal, state and local government web resources and services.